• In Belarus
  • List of Countries
  • For 7 days
  • Water Temperature
  • Satellite Maps
  • Weather Map
  • Weather Widgets
  • user-avatar
    Login

    Hourly Weather Korçe

    Today, 24 September, Sunday

    Time Temperature Precipitation Wind Pressure Humidity
    00:00 +10°C° 0 mm 1 mps 669 mmHg 74%
    01:00 +10°C° 0 mm 1 mps 669 mmHg 74%
    02:00 +10°C° 0 mm 1 mps 669 mmHg 74%
    03:00 +10°C° 0 mm 1 mps 669 mmHg 74%
    04:00 +9°C° 0 mm 1 mps 668 mmHg 75%
    05:00 +10°C° 0 mm 1 mps 669 mmHg 70%
    06:00 +11°C° 0 mm 1 mps 669 mmHg 66%
    07:00 +13°C° 0 mm 1 mps 669 mmHg 61%
    08:00 +15°C° 0 mm 1 mps 670 mmHg 54%
    09:00 +18°C° 0 mm 1 mps 670 mmHg 47%
    10:00 +19°C° 0 mm 2 mps 671 mmHg 40%
    11:00 +19°C° 0 mm 2 mps 671 mmHg 39%
    12:00 +20°C° 0 mm 2 mps 671 mmHg 37%
    13:00 +20°C° 0 mm 2 mps 671 mmHg 36%
    14:00 +19°C° 0.1 mm 2 mps 670 mmHg 41%
    15:00 +18°C° 0.1 mm 2 mps 670 mmHg 46%
    16:00 +17°C° 0.1 mm 2 mps 669 mmHg 51%
    17:00 +16°C° 0.2 mm 1 mps 669 mmHg 57%
    18:00 +15°C° 0.2 mm 1 mps 669 mmHg 62%
    19:00 +14°C° 0.2 mm 1 mps 669 mmHg 68%
    20:00 +13°C° 0 mm 1 mps 669 mmHg 71%
    21:00 +13°C° 0 mm 1 mps 669 mmHg 73%
    22:00 +12°C° 0 mm 1 mps 669 mmHg 76%
    23:00 +12°C° 0 mm 1 mps 669 mmHg 78%

    Tomorrow, 25 September, Monday

    Time Temperature Precipitation Wind Pressure Humidity
    00:00 +11°C° 0 mm 1 mps 668 mmHg 81%
    01:00 +11°C° 0 mm 1 mps 668 mmHg 83%
    02:00 +11°C° 0 mm 1 mps 668 mmHg 83%
    03:00 +10°C° 0 mm 1 mps 667 mmHg 84%
    04:00 +10°C° 0 mm 1 mps 667 mmHg 84%
    05:00 +11°C° 0 mm 1 mps 667 mmHg 82%
    06:00 +12°C° 0 mm 1 mps 668 mmHg 80%
    07:00 +12°C° 0 mm 2 mps 668 mmHg 77%
    08:00 +14°C° 0 mm 2 mps 668 mmHg 71%
    09:00 +15°C° 0 mm 2 mps 669 mmHg 65%
    10:00 +16°C° 0 mm 2 mps 669 mmHg 58%
    11:00 +16°C° 0.5 mm 2 mps 669 mmHg 57%
    12:00 +17°C° 0.5 mm 2 mps 669 mmHg 56%
    13:00 +17°C° 0.5 mm 2 mps 669 mmHg 55%
    14:00 +16°C° 1.3 mm 2 mps 669 mmHg 59%
    15:00 +16°C° 1.3 mm 2 mps 668 mmHg 64%
    16:00 +15°C° 1.3 mm 1 mps 668 mmHg 68%
    17:00 +14°C° 0.8 mm 1 mps 668 mmHg 72%
    18:00 +13°C° 0.8 mm 1 mps 668 mmHg 77%
    19:00 +12°C° 0.8 mm 1 mps 668 mmHg 81%
    20:00 +12°C° 0.1 mm 1 mps 668 mmHg 82%
    21:00 +11°C° 0.1 mm 1 mps 668 mmHg 84%
    22:00 +11°C° 0.1 mm 1 mps 668 mmHg 85%
    23:00 +11°C° 0 mm 1 mps 668 mmHg 85%

    Day after tomorrow, 26 September, Tuesday

    Time Temperature Precipitation Wind Pressure Humidity
    00:00 +11°C° 0 mm 1 mps 668 mmHg 85%
    01:00 +10°C° 0 mm 1 mps 668 mmHg 85%
    02:00 +10°C° 0 mm 1 mps 668 mmHg 85%
    03:00 +10°C° 0 mm 1 mps 667 mmHg 84%
    04:00 +10°C° 0 mm 1 mps 667 mmHg 84%
    05:00 +10°C° 0 mm 1 mps 668 mmHg 81%
    06:00 +11°C° 0 mm 1 mps 668 mmHg 77%
    07:00 +12°C° 0 mm 1 mps 668 mmHg 74%
    08:00 +14°C° 0 mm 1 mps 669 mmHg 66%
    09:00 +16°C° 0 mm 1 mps 669 mmHg 59%
    10:00 +18°C° 0 mm 1 mps 670 mmHg 51%
    11:00 +19°C° 0.5 mm 1 mps 670 mmHg 49%
    12:00 +20°C° 0.5 mm 1 mps 670 mmHg 48%
    13:00 +19°C° 0.5 mm 2 mps 670 mmHg 46%
    14:00 +20°C° 0.7 mm 1 mps 670 mmHg 48%
    15:00 +19°C° 0.7 mm 1 mps 669 mmHg 51%
    16:00 +18°C° 0.7 mm 1 mps 669 mmHg 54%
    17:00 +16°C° 0.4 mm 1 mps 669 mmHg 60%
    18:00 +14°C° 0.4 mm 1 mps 669 mmHg 65%
    19:00 +13°C° 0.4 mm 1 mps 669 mmHg 71%
    20:00 +13°C° 0 mm 1 mps 669 mmHg 73%
    21:00 +12°C° 0 mm 1 mps 669 mmHg 74%
    22:00 +12°C° 0 mm 1 mps 669 mmHg 75%
    23:00 +12°C° 0 mm 1 mps 669 mmHg 76%

    27 September, Wednesday

    Time Temperature Precipitation Wind Pressure Humidity
    00:00 +11°C° 0 mm 1 mps 669 mmHg 76%
    01:00 +11°C° 0 mm 1 mps 669 mmHg 77%
    02:00 +11°C° 0 mm 1 mps 669 mmHg 77%
    03:00 +11°C° 0 mm 1 mps 669 mmHg 78%
    04:00 +10°C° 0 mm 1 mps 669 mmHg 78%
    05:00 +11°C° 0 mm 1 mps 669 mmHg 76%
    06:00 +12°C° 0 mm 1 mps 670 mmHg 73%
    07:00 +13°C° 0 mm 1 mps 670 mmHg 71%
    08:00 +14°C° 0 mm 1 mps 671 mmHg 63%
    09:00 +16°C° 0 mm 1 mps 671 mmHg 56%
    10:00 +19°C° 0 mm 1 mps 672 mmHg 48%
    11:00 +20°C° 0.1 mm 1 mps 672 mmHg 47%
    12:00 +20°C° 0.1 mm 1 mps 672 mmHg 45%
    13:00 +20°C° 0.1 mm 2 mps 672 mmHg 43%
    14:00 +19°C° 0.1 mm 2 mps 672 mmHg 47%
    15:00 +18°C° 0.1 mm 2 mps 671 mmHg 51%
    16:00 +19°C° 0.1 mm 1 mps 671 mmHg 55%
    17:00 +16°C° 0.3 mm 1 mps 671 mmHg 60%
    18:00 +15°C° 0.3 mm 1 mps 671 mmHg 65%
    19:00 +14°C° 0.3 mm 1 mps 671 mmHg 70%
    20:00 +13°C° 0.1 mm 1 mps 671 mmHg 72%
    21:00 +13°C° 0.1 mm 1 mps 671 mmHg 73%
    22:00 +13°C° 0.1 mm 1 mps 671 mmHg 74%
    23:00 +12°C° 0 mm 1 mps 671 mmHg 76%

    28 September, Thursday

    Time Temperature Precipitation Wind Pressure Humidity
    00:00 +12°C° 0 mm 1 mps 671 mmHg 77%
    01:00 +11°C° 0 mm 1 mps 670 mmHg 79%
    02:00 +11°C° 0 mm 1 mps 670 mmHg 80%
    03:00 +11°C° 0 mm 1 mps 670 mmHg 81%
    04:00 +10°C° 0 mm 1 mps 670 mmHg 82%
    05:00 +10°C° 0 mm 2 mps 670 mmHg 80%
    06:00 +12°C° 0 mm 2 mps 671 mmHg 78%
    07:00 +12°C° 0 mm 2 mps 671 mmHg 76%
    08:00 +14°C° 0 mm 2 mps 671 mmHg 69%
    09:00 +16°C° 0 mm 2 mps 672 mmHg 62%
    10:00 +17°C° 0 mm 2 mps 672 mmHg 55%
    11:00 +18°C° 0.3 mm 2 mps 672 mmHg 53%
    12:00 +18°C° 0.3 mm 2 mps 672 mmHg 51%
    13:00 +19°C° 0.3 mm 2 mps 672 mmHg 49%
    14:00 +18°C° 0.9 mm 2 mps 671 mmHg 53%
    15:00 +17°C° 0.9 mm 2 mps 671 mmHg 57%
    16:00 +17°C° 0.9 mm 2 mps 671 mmHg 61%
    17:00 +15°C° 0.8 mm 2 mps 671 mmHg 68%
    18:00 +14°C° 0.8 mm 1 mps 671 mmHg 74%
    19:00 +13°C° 0.8 mm 1 mps 671 mmHg 80%
    20:00 +13°C° 0.2 mm 2 mps 671 mmHg 82%
    21:00 +12°C° 0.2 mm 2 mps 671 mmHg 83%
    22:00 +12°C° 0.2 mm 2 mps 671 mmHg 85%
    23:00 +10°C° 0 mm 2 mps 671 mmHg 85%

    29 September, Friday

    Time Temperature Precipitation Wind Pressure Humidity
    00:00 +10°C° 0 mm 2 mps 670 mmHg 86%
    01:00 +10°C° 0 mm 2 mps 670 mmHg 86%
    02:00 +9°C° 0 mm 2 mps 670 mmHg 87%
    03:00 +9°C° 0 mm 2 mps 670 mmHg 87%
    04:00 +9°C° 0 mm 2 mps 670 mmHg 87%
    05:00 +9°C° 0 mm 2 mps 670 mmHg 85%
    06:00 +10°C° 0 mm 2 mps 670 mmHg 83%
    07:00 +10°C° 0 mm 2 mps 670 mmHg 81%
    08:00 +12°C° 0 mm 2 mps 670 mmHg 74%
    09:00 +14°C° 0 mm 2 mps 671 mmHg 67%
    10:00 +15°C° 0 mm 2 mps 671 mmHg 59%
    11:00 +16°C° 0 mm 2 mps 671 mmHg 56%
    12:00 +16°C° 0 mm 2 mps 671 mmHg 53%
    13:00 +17°C° 0 mm 2 mps 671 mmHg 50%
    14:00 +16°C° 0.1 mm 2 mps 671 mmHg 52%
    15:00 +16°C° 0.1 mm 2 mps 670 mmHg 54%
    16:00 +15°C° 0.1 mm 2 mps 670 mmHg 56%
    17:00 +14°C° 0.1 mm 2 mps 670 mmHg 62%
    18:00 +13°C° 0.1 mm 2 mps 670 mmHg 68%
    19:00 +11°C° 0.1 mm 1 mps 670 mmHg 73%
    20:00 +11°C° 0 mm 1 mps 670 mmHg 75%
    21:00 +10°C° 0 mm 1 mps 670 mmHg 78%
    22:00 +8°C° 0 mm 2 mps 670 mmHg 80%
    23:00 +8°C° 0 mm 2 mps 669 mmHg 80%
    Show more